THOR 5

Last updated on Tue Sep 22 2026 00:03:11 GMT+0000 (Coordinated Universal Time)

1 32487U 08006A 26264.27508972 -.00000013 00000+0 00000+0 0 9991 2 32487 0.0186 218.7000 0002394 318.8600 280.8848 1.00272241 68273
UTC large
Height (km)
Speed (km/s)
/
Latitude / Longitude
Inclination (degrees)
Orbital Period (minutes)
Azimuth
Elevation
Range (km)
Doppler Factor

Next 0 passes for location: London (51.5072 / 0.1276)

No passes found over London.
THOR 5